STARLINK-34207, 64333

Orbit data source: Space-Track

STARLINK-34207, 64333 is a payload satellite owned by SpaceX/Seattle (US) in LEO that was launched on Tue, 10 Jun 2025 UTC via an FALCON 9 launch vehicle from the Air Force Eastern Test Range (AFETR). Payload-class satellites include a variety of spacecraft equipped with specific instruments for various scientific and technological missions. These include communications satellites like Starlink; space stations such as the ISS; scientific satellites like the Hubble; Earth observation satellites from companies like Planet Labs, Umbra, and HawkEye 360; GPS; miniature CubeSats for education and research; and military/defense satellites.

Loading next visibility...
Identifier
64333, 2025-124S
Orbit
LEO
Country
Flag of USUS
Related business
Manufacturer
SpaceX/Seattle
Mission
Operational Commercial Communications
Bus & Motor
STARLINK V2MO, Unknown motor
Mass
575 kg wet, ~530 kg dry
Launch date (UTC)
2025-06-10 (9 months ago)
Launch vehicle
FALCON 9
Launch site
Air Force Eastern Test Range (AFETR)
Object type
Payload
Rocket body
Debris
Shape & HBR
Box + 2 Pan, 17.7 m
Radar Cross Section
36.964 m², Large (>1 m²)

Expand to show TLE details & history
Last TLE update: 11 hours ago

TLE from 11 hours ago
0 STARLINK-34207
1 64333U 25124S   26074.40872453  .00026758  00000-0  97760-3 0  9995
2 64333  42.9977  89.5376 0001309 282.7259  77.3446 15.27605121 42653
Epoch: 2026-03-15T09:48Z
TLE epoch observation values (Epoch: 2026-03-15T09:48:33.799Z)
Latitude
-0.00003°
Longitude
129.38076°
Altitude
482.552 km
Speed
7.626 km/s
True Right ascension
05h 58m 09s
True Declination
0° 00' 00"
Sunlit
Object was in daylight at epoch
Visualization orbit readout
Latitude
Unknown
Longitude
Unknown
Altitude
Unknown
Speed
Unknown
Apparent Right ascension
Unknown
Apparent Declination
Unknown
Sunlit
N/A
Visualization observer readout
Local Sidereal Time
01:14:10
Azimuth
Unknown
Elevation
Unknown
Doppler factor
Unknown
Orbital elements
Apogee altitude
485.818 km
Perigee altitude
484.021 km
Semi-major axis
6,863.056 km
Eccentricity
0.00013
Inclination
42.9977°
RAAN
89.5376°
Arg. of periapsis
282.7259°
True anomaly
77.35924°
Mean anomaly
77.3446°
Eccentric anomaly
77.35192°
Mean motion
3.81739 °/min
Orbital period
94.31 mins
BSTAR
0.0009776
Loading maneuver chart data...
Computing Atmospheric mass density...
Loading historical data...
Loading historical data...
Loading historical data...
Loading historical data...
Loading historical data...
Loading historical data...
Loading historical data...

Documentation

Showing up to 5 results
|